COSMOS 1275 DEB, 42193

Orbit data source: Space-Track

COSMOS 1275 DEB, 42193 is space debris in LEO originally from a launch on Thu, 04 Jun 1981 UTC launched from the Plesetsk Missile And Space Complex (PKMTR). Debris objects in space refer to the collection of defunct objects orbiting the Earth. Examples of debris include non-operational satellites, rocket bodies, and fragments generated from explosions, collisions, or faulty payload assembly.

Loading next visibility...
Identifier
42193, 1981-053TH
Orbit
LEO
Country
Flag of CISCIS
Related business
Manufacturer
Unknown
Mission
Spacecraft
Bus & Motor
Unknown
Mass
Unknown
Launch date (UTC)
1981-06-04 (45 years ago)
Launch vehicle
Unknown
Launch site
Plesetsk Missile And Space Complex (PKMTR)
Object type
Payload
Rocket body
Debris
Shape & HBR
Unknown shape, 0.1 m
Radar Cross Section
Small (<0.1 m²)

Expand to show TLE details & history
Last TLE update: 11 hours ago

TLE from 11 hours ago
0 COSMOS 1275 DEB
1 42193U 81053TH  26037.25362678  .00000853  00000-0  93416-3 0  9995
2 42193  82.9589 330.2154 0129159 323.0828  36.1484 13.67939746596868
Epoch: 2026-02-06T06:05Z
TLE epoch observation values (Epoch: 2026-02-06T06:05:13.353Z)
Latitude
-0.00007°
Longitude
102.5156°
Altitude
933.266 km
Speed
7.423 km/s
True Right ascension
22h 00m 51s
True Declination
0° 00' 00"
Sunlit
Object was in daylight at epoch
Visualization orbit readout
Latitude
Unknown
Longitude
Unknown
Altitude
Unknown
Speed
Unknown
Apparent Right ascension
Unknown
Apparent Declination
Unknown
Sunlit
N/A
Visualization observer readout
Local Sidereal Time
18:54:48
Azimuth
Unknown
Elevation
Unknown
Doppler factor
Unknown
Orbital elements
Apogee altitude
1,099.483 km
Perigee altitude
908.785 km
Semi-major axis
7,382.271 km
Eccentricity
0.01292
Inclination
82.9589°
RAAN
330.2154°
Arg. of periapsis
323.0828°
True anomaly
37.03294°
Mean anomaly
36.1484°
Eccentric anomaly
36.58951°
Mean motion
3.42183 °/min
Orbital period
105.21 mins
BSTAR
0.00093416
Loading maneuver chart data...
Computing Atmospheric mass density...
Loading historical data...
Loading historical data...
Loading historical data...
Loading historical data...
Loading historical data...
Loading historical data...
Loading historical data...

Documentation

Showing up to 5 results
|